Year,Month,Day,Hour,Minute,Value (Times are PST for temperature in C)
2017,12,16,00,00,6.90
2017,12,16,00,01,6.90
2017,12,16,00,02,6.90
2017,12,16,00,03,6.80
2017,12,16,00,04,6.80
2017,12,16,00,05,6.80
2017,12,16,00,06,6.80
2017,12,16,00,07,6.80
2017,12,16,00,08,6.80
2017,12,16,00,09,6.80
2017,12,16,00,10,6.80
2017,12,16,00,11,6.80
2017,12,16,00,12,6.80
2017,12,16,00,13,6.70
2017,12,16,00,14,6.70
2017,12,16,00,15,6.70
2017,12,16,00,16,6.70
2017,12,16,00,17,6.70
2017,12,16,00,18,6.60
2017,12,16,00,19,6.60
2017,12,16,00,20,6.60
2017,12,16,00,21,6.60
2017,12,16,00,22,6.60
2017,12,16,00,23,6.60
2017,12,16,00,24,6.60
2017,12,16,00,25,6.60
2017,12,16,00,26,6.60
2017,12,16,00,27,6.50
2017,12,16,00,28,6.50
2017,12,16,00,29,6.50
2017,12,16,00,30,6.60
2017,12,16,00,31,6.50
2017,12,16,00,32,6.50
2017,12,16,00,33,6.60
2017,12,16,00,34,6.50
2017,12,16,00,35,6.50
2017,12,16,00,36,6.50
2017,12,16,00,37,6.50
2017,12,16,00,38,6.50
2017,12,16,00,39,6.40
2017,12,16,00,40,6.40
2017,12,16,00,41,6.40
2017,12,16,00,42,6.40
2017,12,16,00,43,6.40
2017,12,16,00,44,6.40
2017,12,16,00,45,6.40
2017,12,16,00,46,6.40
2017,12,16,00,47,6.40
2017,12,16,00,48,6.50
2017,12,16,00,49,6.50
2017,12,16,00,50,6.50
2017,12,16,00,51,6.60
2017,12,16,00,52,6.60
2017,12,16,00,53,6.60
2017,12,16,00,54,6.60
2017,12,16,00,55,6.60
2017,12,16,00,56,6.60
2017,12,16,00,57,6.60
2017,12,16,00,58,6.60
2017,12,16,00,59,6.60
2017,12,16,01,00,6.60
2017,12,16,01,01,6.60
2017,12,16,01,02,6.60
2017,12,16,01,03,6.60
2017,12,16,01,04,6.60
2017,12,16,01,05,6.60
2017,12,16,01,06,6.60
2017,12,16,01,07,6.60
2017,12,16,01,08,6.70
2017,12,16,01,09,6.70
2017,12,16,01,10,6.70
2017,12,16,01,11,6.70
2017,12,16,01,12,6.70
2017,12,16,01,13,6.70
2017,12,16,01,14,6.70
2017,12,16,01,15,6.70
2017,12,16,01,16,6.70
2017,12,16,01,17,6.70
2017,12,16,01,18,6.70
2017,12,16,01,19,6.70
2017,12,16,01,20,6.70
2017,12,16,01,21,6.60
2017,12,16,01,22,6.60
2017,12,16,01,23,6.60
2017,12,16,01,24,6.60
2017,12,16,01,25,6.60
2017,12,16,01,26,6.60
2017,12,16,01,27,6.60
2017,12,16,01,28,6.60
2017,12,16,01,29,6.60
2017,12,16,01,30,6.70
2017,12,16,01,31,6.60
2017,12,16,01,32,6.60
2017,12,16,01,33,6.60
2017,12,16,01,34,6.60
2017,12,16,01,35,6.60
2017,12,16,01,36,6.60
2017,12,16,01,37,6.60
2017,12,16,01,38,6.60
2017,12,16,01,39,6.60
2017,12,16,01,40,6.60
2017,12,16,01,41,6.60
2017,12,16,01,42,6.50
2017,12,16,01,43,6.60
2017,12,16,01,44,6.60
2017,12,16,01,45,6.60
2017,12,16,01,46,6.60
2017,12,16,01,47,6.60
2017,12,16,01,48,6.60
2017,12,16,01,49,6.60
2017,12,16,01,50,6.70
2017,12,16,01,51,6.70
2017,12,16,01,52,6.70
2017,12,16,01,53,6.70
2017,12,16,01,54,6.70
2017,12,16,01,55,6.70
2017,12,16,01,56,6.70
2017,12,16,01,57,6.70
2017,12,16,01,58,6.70
2017,12,16,01,59,6.70
2017,12,16,02,00,6.70
2017,12,16,02,01,6.70
2017,12,16,02,02,6.70
2017,12,16,02,03,6.70
2017,12,16,02,04,6.70
2017,12,16,02,05,6.70
2017,12,16,02,06,6.70
2017,12,16,02,07,6.70
2017,12,16,02,08,6.70
2017,12,16,02,09,6.70
2017,12,16,02,10,6.70
2017,12,16,02,11,6.70
2017,12,16,02,12,6.70
2017,12,16,02,13,6.60
2017,12,16,02,14,6.60
2017,12,16,02,15,6.60
2017,12,16,02,16,6.60
2017,12,16,02,17,6.60
2017,12,16,02,18,6.60
2017,12,16,02,19,6.60
2017,12,16,02,20,6.60
2017,12,16,02,21,6.60
2017,12,16,02,22,6.60
2017,12,16,02,23,6.60
2017,12,16,02,24,6.60
2017,12,16,02,25,6.60
2017,12,16,02,26,6.60
2017,12,16,02,27,6.60
2017,12,16,02,28,6.60
2017,12,16,02,29,6.60
2017,12,16,02,30,6.60
2017,12,16,02,31,6.60
2017,12,16,02,32,6.60
2017,12,16,02,33,6.60
2017,12,16,02,34,6.60
2017,12,16,02,35,6.60
2017,12,16,02,36,6.60
2017,12,16,02,37,6.60
2017,12,16,02,38,6.60
2017,12,16,02,39,6.60
2017,12,16,02,40,6.60
2017,12,16,02,41,6.60
2017,12,16,02,42,6.60
2017,12,16,02,43,6.60
2017,12,16,02,44,6.60
2017,12,16,02,45,6.60
2017,12,16,02,46,6.60
2017,12,16,02,47,6.50
2017,12,16,02,48,6.50
2017,12,16,02,49,6.50
2017,12,16,02,50,6.50
2017,12,16,02,51,6.50
2017,12,16,02,52,6.50
2017,12,16,02,53,6.50
2017,12,16,02,54,6.40
2017,12,16,02,55,6.40
2017,12,16,02,56,6.40
2017,12,16,02,57,6.40
2017,12,16,02,58,6.40
2017,12,16,02,59,6.40
2017,12,16,03,00,6.40
2017,12,16,03,01,6.40
2017,12,16,03,02,6.40
2017,12,16,03,03,6.40
2017,12,16,03,04,6.40
2017,12,16,03,05,6.40
2017,12,16,03,06,6.40
2017,12,16,03,07,6.40
2017,12,16,03,08,6.40
2017,12,16,03,09,6.40
2017,12,16,03,10,6.40
2017,12,16,03,11,6.40
2017,12,16,03,12,6.40
2017,12,16,03,13,6.40
2017,12,16,03,14,6.30
2017,12,16,03,15,6.30
2017,12,16,03,16,6.30
2017,12,16,03,17,6.30
2017,12,16,03,18,6.30
2017,12,16,03,19,6.30
2017,12,16,03,20,6.30
2017,12,16,03,21,6.30
2017,12,16,03,22,6.30
2017,12,16,03,23,6.30
2017,12,16,03,24,6.30
2017,12,16,03,25,6.30
2017,12,16,03,26,6.30
2017,12,16,03,27,6.20
2017,12,16,03,28,6.20
2017,12,16,03,29,6.30
2017,12,16,03,30,6.30
2017,12,16,03,31,6.30
2017,12,16,03,32,6.30
2017,12,16,03,33,6.30
2017,12,16,03,34,6.30
2017,12,16,03,35,6.30
2017,12,16,03,36,6.30
2017,12,16,03,37,6.30
2017,12,16,03,38,6.30
2017,12,16,03,39,6.30
2017,12,16,03,40,6.30
2017,12,16,03,41,6.30
2017,12,16,03,42,6.30
2017,12,16,03,43,6.30
2017,12,16,03,44,6.20
2017,12,16,03,45,6.30
2017,12,16,03,46,6.30
2017,12,16,03,47,6.30
2017,12,16,03,48,6.30
2017,12,16,03,49,6.30
2017,12,16,03,50,6.30
2017,12,16,03,51,6.30
2017,12,16,03,52,6.30
2017,12,16,03,53,6.30
2017,12,16,03,54,6.30
2017,12,16,03,55,6.30
2017,12,16,03,56,6.30
2017,12,16,03,57,6.30
2017,12,16,03,58,6.30
2017,12,16,03,59,6.30
2017,12,16,04,00,6.30
2017,12,16,04,01,6.30
2017,12,16,04,02,6.30
2017,12,16,04,03,6.30
2017,12,16,04,04,6.30
2017,12,16,04,05,6.30
2017,12,16,04,06,6.30
2017,12,16,04,07,6.30
2017,12,16,04,08,6.30
2017,12,16,04,09,6.40
2017,12,16,04,10,6.40
2017,12,16,04,11,6.40
2017,12,16,04,12,6.40
2017,12,16,04,13,6.40
2017,12,16,04,14,6.40
2017,12,16,04,15,6.40
2017,12,16,04,16,6.40
2017,12,16,04,17,6.40
2017,12,16,04,18,6.40
2017,12,16,04,19,6.50
2017,12,16,04,20,6.50
2017,12,16,04,21,6.50
2017,12,16,04,22,6.50
2017,12,16,04,23,6.50
2017,12,16,04,24,6.60
2017,12,16,04,25,6.50
2017,12,16,04,26,6.50
2017,12,16,04,27,6.60
2017,12,16,04,28,6.60
2017,12,16,04,29,6.60
2017,12,16,04,30,6.60
2017,12,16,04,31,6.60
2017,12,16,04,32,6.60
2017,12,16,04,33,6.60
2017,12,16,04,34,6.60
2017,12,16,04,35,6.60
2017,12,16,04,36,6.60
2017,12,16,04,37,6.60
2017,12,16,04,38,6.60
2017,12,16,04,39,6.60
2017,12,16,04,40,6.60
2017,12,16,04,41,6.50
2017,12,16,04,42,6.50
2017,12,16,04,43,6.60
2017,12,16,04,44,6.50
2017,12,16,04,45,6.60
2017,12,16,04,46,6.60
2017,12,16,04,47,6.60
2017,12,16,04,48,6.60
2017,12,16,04,49,6.60
2017,12,16,04,50,6.60
2017,12,16,04,51,6.60
2017,12,16,04,52,6.60
2017,12,16,04,53,6.60
2017,12,16,04,54,6.60
2017,12,16,04,55,6.60
2017,12,16,04,56,6.60
2017,12,16,04,57,6.60
2017,12,16,04,58,6.60
2017,12,16,04,59,6.60
2017,12,16,05,00,6.50
2017,12,16,05,01,6.50
2017,12,16,05,02,6.60
2017,12,16,05,03,6.50
2017,12,16,05,04,6.50
2017,12,16,05,05,6.50
2017,12,16,05,06,6.50
2017,12,16,05,07,6.40
2017,12,16,05,08,6.40
2017,12,16,05,09,6.40
2017,12,16,05,10,6.40
2017,12,16,05,11,6.40
2017,12,16,05,12,6.40
2017,12,16,05,13,6.40
2017,12,16,05,14,6.40
2017,12,16,05,15,6.40
2017,12,16,05,16,6.40
2017,12,16,05,17,6.40
2017,12,16,05,18,6.40
2017,12,16,05,19,6.30
2017,12,16,05,20,6.30
2017,12,16,05,21,6.30
2017,12,16,05,22,6.30
2017,12,16,05,23,6.30
2017,12,16,05,24,6.30
2017,12,16,05,25,6.30
2017,12,16,05,26,6.30
2017,12,16,05,27,6.30
2017,12,16,05,28,6.30
2017,12,16,05,29,6.30
2017,12,16,05,30,6.20
2017,12,16,05,31,6.20
2017,12,16,05,32,6.20
2017,12,16,05,33,6.20
2017,12,16,05,34,6.20
2017,12,16,05,35,6.20
2017,12,16,05,36,6.20
2017,12,16,05,37,6.20
2017,12,16,05,38,6.10
2017,12,16,05,39,6.10
2017,12,16,05,40,6.10
2017,12,16,05,41,6.10
2017,12,16,05,42,6.10
2017,12,16,05,43,6.10
2017,12,16,05,44,6.10
2017,12,16,05,45,6.10
2017,12,16,05,46,6.00
2017,12,16,05,47,6.00
2017,12,16,05,48,6.00
2017,12,16,05,49,6.00
2017,12,16,05,50,6.00
2017,12,16,05,51,6.00
2017,12,16,05,52,6.00
2017,12,16,05,53,6.00
2017,12,16,05,54,6.00
2017,12,16,05,55,6.00
2017,12,16,05,56,6.00
2017,12,16,05,57,6.00
2017,12,16,05,58,6.00
2017,12,16,05,59,6.00
2017,12,16,06,00,6.00
2017,12,16,06,01,6.10
2017,12,16,06,02,6.10
2017,12,16,06,03,6.10
2017,12,16,06,04,6.10
2017,12,16,06,05,6.20
2017,12,16,06,06,6.20
2017,12,16,06,07,6.20
2017,12,16,06,08,6.20
2017,12,16,06,09,6.20
2017,12,16,06,10,6.20
2017,12,16,06,11,6.20
2017,12,16,06,12,6.20
2017,12,16,06,13,6.20
2017,12,16,06,14,6.20
2017,12,16,06,15,6.20
2017,12,16,06,16,6.20
2017,12,16,06,17,6.20
2017,12,16,06,18,6.20
2017,12,16,06,19,6.20
2017,12,16,06,20,6.20
2017,12,16,06,21,6.20
2017,12,16,06,22,6.20
2017,12,16,06,23,6.20
2017,12,16,06,24,6.20
2017,12,16,06,25,6.20
2017,12,16,06,26,6.20
2017,12,16,06,27,6.20
2017,12,16,06,28,6.30
2017,12,16,06,29,6.30
2017,12,16,06,30,6.30
2017,12,16,06,31,6.30
2017,12,16,06,32,6.30
2017,12,16,06,33,6.30
2017,12,16,06,34,6.20
2017,12,16,06,35,6.20
2017,12,16,06,36,6.20
2017,12,16,06,37,6.20
2017,12,16,06,38,6.20
2017,12,16,06,39,6.20
2017,12,16,06,40,6.20
2017,12,16,06,41,6.20
2017,12,16,06,42,6.10
2017,12,16,06,43,6.10
2017,12,16,06,44,6.10
2017,12,16,06,45,6.10
2017,12,16,06,46,6.10
2017,12,16,06,47,6.10
2017,12,16,06,48,6.10
2017,12,16,06,49,6.10
2017,12,16,06,50,6.00
2017,12,16,06,51,6.00
2017,12,16,06,52,6.00
2017,12,16,06,53,5.90
2017,12,16,06,54,5.90
2017,12,16,06,55,5.90
2017,12,16,06,56,5.90
2017,12,16,06,57,5.80
2017,12,16,06,58,5.80
2017,12,16,06,59,5.80
2017,12,16,07,00,5.80
2017,12,16,07,01,5.80
2017,12,16,07,02,5.80
2017,12,16,07,03,5.80
2017,12,16,07,04,5.80
2017,12,16,07,05,5.80
2017,12,16,07,06,5.80
2017,12,16,07,07,5.80
2017,12,16,07,08,5.80
2017,12,16,07,09,5.80
2017,12,16,07,10,5.80
2017,12,16,07,11,5.80
2017,12,16,07,12,5.70
2017,12,16,07,13,5.70
2017,12,16,07,14,5.70
2017,12,16,07,15,5.70
2017,12,16,07,16,5.70
2017,12,16,07,17,5.70
2017,12,16,07,18,5.70
2017,12,16,07,19,5.70
2017,12,16,07,20,5.70
2017,12,16,07,21,5.70
2017,12,16,07,22,5.70
2017,12,16,07,23,5.70
2017,12,16,07,24,5.60
2017,12,16,07,25,5.60
2017,12,16,07,26,5.60
2017,12,16,07,27,5.60
2017,12,16,07,28,5.60
2017,12,16,07,29,5.60
2017,12,16,07,30,5.60
2017,12,16,07,31,5.60
2017,12,16,07,32,5.60
2017,12,16,07,33,5.50
2017,12,16,07,34,5.60
2017,12,16,07,35,5.60
2017,12,16,07,36,5.60
2017,12,16,07,37,5.50
2017,12,16,07,38,5.50
2017,12,16,07,39,5.50
2017,12,16,07,40,5.50
2017,12,16,07,41,5.50
2017,12,16,07,42,5.50
2017,12,16,07,43,5.50
2017,12,16,07,44,5.60
2017,12,16,07,45,5.60
2017,12,16,07,46,5.60
2017,12,16,07,47,5.60
2017,12,16,07,48,5.60
2017,12,16,07,49,5.70
2017,12,16,07,50,5.70
2017,12,16,07,51,5.70
2017,12,16,07,52,5.60
2017,12,16,07,53,5.60
2017,12,16,07,54,5.60
2017,12,16,07,55,5.60
2017,12,16,07,56,5.60
2017,12,16,07,57,5.50
2017,12,16,07,58,5.50
2017,12,16,07,59,5.50
2017,12,16,08,00,5.50
2017,12,16,08,01,5.50
2017,12,16,08,02,5.50
2017,12,16,08,03,5.50
2017,12,16,08,04,5.50
2017,12,16,08,05,5.50
2017,12,16,08,06,5.50
2017,12,16,08,07,5.50
2017,12,16,08,08,5.50
2017,12,16,08,09,5.50
2017,12,16,08,10,5.50
2017,12,16,08,11,5.50
2017,12,16,08,12,5.40
2017,12,16,08,13,5.40
2017,12,16,08,14,5.40
2017,12,16,08,15,5.40
2017,12,16,08,16,5.40
2017,12,16,08,17,5.40
2017,12,16,08,18,5.40
2017,12,16,08,19,5.40
2017,12,16,08,20,5.40
2017,12,16,08,21,5.40
2017,12,16,08,22,5.40
2017,12,16,08,23,5.40
2017,12,16,08,24,5.40
2017,12,16,08,25,5.40
2017,12,16,08,26,5.40
2017,12,16,08,27,5.40
2017,12,16,08,28,5.30
2017,12,16,08,29,5.30
2017,12,16,08,30,5.30
2017,12,16,08,31,5.30
2017,12,16,08,32,5.30
2017,12,16,08,33,5.30
2017,12,16,08,34,5.30
2017,12,16,08,35,5.30
2017,12,16,08,36,5.30
2017,12,16,08,37,5.30
2017,12,16,08,38,5.30
2017,12,16,08,39,5.30
2017,12,16,08,40,5.30
2017,12,16,08,41,5.30
2017,12,16,08,42,5.30
2017,12,16,08,43,5.30
2017,12,16,08,44,5.30
2017,12,16,08,45,5.30
2017,12,16,08,46,5.30
2017,12,16,08,47,5.30
2017,12,16,08,48,5.30
2017,12,16,08,49,5.30
2017,12,16,08,50,5.30
2017,12,16,08,51,5.40
2017,12,16,08,52,5.40
2017,12,16,08,53,5.40
2017,12,16,08,54,5.40
2017,12,16,08,55,5.40
2017,12,16,08,56,5.40
2017,12,16,08,57,5.40
2017,12,16,08,58,5.40
2017,12,16,08,59,5.50
2017,12,16,09,00,5.40
2017,12,16,09,01,5.40
2017,12,16,09,02,5.50
2017,12,16,09,03,5.40
2017,12,16,09,04,5.40
2017,12,16,09,05,5.50
2017,12,16,09,06,5.40
2017,12,16,09,07,5.50
2017,12,16,09,08,5.50
2017,12,16,09,09,5.50
2017,12,16,09,10,5.50
2017,12,16,09,11,5.50
2017,12,16,09,12,5.60
2017,12,16,09,13,5.60
2017,12,16,09,14,5.60
2017,12,16,09,15,5.60
2017,12,16,09,16,5.60
2017,12,16,09,17,5.70
2017,12,16,09,18,5.70
2017,12,16,09,19,5.70
2017,12,16,09,20,5.70
2017,12,16,09,21,5.70
2017,12,16,09,22,5.70
2017,12,16,09,23,5.70
2017,12,16,09,24,5.70
2017,12,16,09,25,5.70
2017,12,16,09,26,5.70
2017,12,16,09,27,5.70
2017,12,16,09,28,5.70
2017,12,16,09,29,5.70
2017,12,16,09,30,5.70
2017,12,16,09,31,5.70
2017,12,16,09,32,5.70
2017,12,16,09,33,5.70
2017,12,16,09,34,5.70
2017,12,16,09,35,5.70
2017,12,16,09,36,5.70
2017,12,16,09,37,5.70
2017,12,16,09,38,5.70
2017,12,16,09,39,5.70
2017,12,16,09,40,5.70
2017,12,16,09,41,5.70
2017,12,16,09,42,5.60
2017,12,16,09,43,5.60
2017,12,16,09,44,5.60
2017,12,16,09,45,5.60
2017,12,16,09,46,5.60
2017,12,16,09,47,5.70
2017,12,16,09,48,5.70
2017,12,16,09,49,5.70
2017,12,16,09,50,5.70
2017,12,16,09,51,5.70
2017,12,16,09,52,5.70
2017,12,16,09,53,5.70
2017,12,16,09,54,5.70
2017,12,16,09,55,5.70
2017,12,16,09,56,5.70
2017,12,16,09,57,5.70
2017,12,16,09,58,5.80
2017,12,16,09,59,5.80
2017,12,16,10,00,5.80
2017,12,16,10,01,5.80
2017,12,16,10,02,5.80
2017,12,16,10,03,5.80
2017,12,16,10,04,5.80
2017,12,16,10,05,5.80
2017,12,16,10,06,5.80
2017,12,16,10,07,5.90
2017,12,16,10,08,5.90
2017,12,16,10,09,5.90
2017,12,16,10,10,6.00
2017,12,16,10,11,6.00
2017,12,16,10,12,6.00
2017,12,16,10,13,6.10
2017,12,16,10,14,6.10
2017,12,16,10,15,6.20
2017,12,16,10,16,6.20
2017,12,16,10,17,6.20
2017,12,16,10,18,6.20
2017,12,16,10,19,6.20
2017,12,16,10,20,6.30
2017,12,16,10,21,6.30
2017,12,16,10,22,6.30
2017,12,16,10,23,6.30
2017,12,16,10,24,6.30
2017,12,16,10,25,6.30
2017,12,16,10,26,6.30
2017,12,16,10,27,6.40
2017,12,16,10,28,6.40
2017,12,16,10,29,6.40
2017,12,16,10,30,6.40
2017,12,16,10,31,6.40
2017,12,16,10,32,6.40
2017,12,16,10,33,6.40
2017,12,16,10,34,6.40
2017,12,16,10,35,6.40
2017,12,16,10,36,6.40
2017,12,16,10,37,6.50
2017,12,16,10,38,6.50
2017,12,16,10,39,6.50
2017,12,16,10,40,6.50
2017,12,16,10,41,6.50
2017,12,16,10,42,6.60
2017,12,16,10,43,6.50
2017,12,16,10,44,6.60
2017,12,16,10,45,6.60
2017,12,16,10,46,6.60
2017,12,16,10,47,6.60
2017,12,16,10,48,6.60
2017,12,16,10,49,6.60
2017,12,16,10,50,6.60
2017,12,16,10,51,6.60
2017,12,16,10,52,6.70
2017,12,16,10,53,6.70
2017,12,16,10,54,6.70
2017,12,16,10,55,6.70
2017,12,16,10,56,6.70
2017,12,16,10,57,6.70
2017,12,16,10,58,6.70
2017,12,16,10,59,6.70
2017,12,16,11,00,6.70
2017,12,16,11,01,6.70
2017,12,16,11,02,6.70
2017,12,16,11,03,6.70
2017,12,16,11,04,6.80
2017,12,16,11,05,6.80
2017,12,16,11,06,6.80
2017,12,16,11,07,6.80
2017,12,16,11,08,6.80
2017,12,16,11,09,6.80
2017,12,16,11,10,6.80
2017,12,16,11,11,6.80
2017,12,16,11,12,6.80
2017,12,16,11,13,6.80
2017,12,16,11,14,6.80
2017,12,16,11,15,6.80
2017,12,16,11,16,6.80
2017,12,16,11,17,6.90
2017,12,16,11,18,6.90
2017,12,16,11,19,6.90
2017,12,16,11,20,6.90
2017,12,16,11,21,6.80
2017,12,16,11,22,6.80
2017,12,16,11,23,6.80
2017,12,16,11,24,6.80
2017,12,16,11,25,6.80
2017,12,16,11,26,6.80
2017,12,16,11,27,6.80
2017,12,16,11,28,6.80
2017,12,16,11,29,6.80
2017,12,16,11,30,6.80
2017,12,16,11,31,6.80
2017,12,16,11,32,6.80
2017,12,16,11,33,6.80
2017,12,16,11,34,6.80
2017,12,16,11,35,6.80
2017,12,16,11,36,6.80
2017,12,16,11,37,6.80
2017,12,16,11,38,6.70
2017,12,16,11,39,6.70
2017,12,16,11,40,6.70
2017,12,16,11,41,6.70
2017,12,16,11,42,6.70
2017,12,16,11,43,6.70
2017,12,16,11,44,6.70
2017,12,16,11,45,6.70
2017,12,16,11,46,6.70
2017,12,16,11,47,6.70
2017,12,16,11,48,6.70
2017,12,16,11,49,6.70
2017,12,16,11,50,6.80
2017,12,16,11,51,6.80
2017,12,16,11,52,6.80
2017,12,16,11,53,6.80
2017,12,16,11,54,6.80
2017,12,16,11,55,6.80
2017,12,16,11,56,6.80
2017,12,16,11,57,6.80
2017,12,16,11,58,6.80
2017,12,16,11,59,6.80
2017,12,16,12,00,6.80
2017,12,16,12,01,6.80
2017,12,16,12,02,6.80
2017,12,16,12,03,6.80
2017,12,16,12,04,6.80
2017,12,16,12,05,6.80
2017,12,16,12,06,6.80
2017,12,16,12,07,6.80
2017,12,16,12,08,6.80
2017,12,16,12,09,6.80
2017,12,16,12,10,6.80
2017,12,16,12,11,6.80
2017,12,16,12,12,6.80
2017,12,16,12,13,6.80
2017,12,16,12,14,6.80
2017,12,16,12,15,6.80
2017,12,16,12,16,6.80
2017,12,16,12,17,6.80
2017,12,16,12,18,6.80
2017,12,16,12,19,6.80
2017,12,16,12,20,6.80
2017,12,16,12,21,6.80
2017,12,16,12,22,6.80
2017,12,16,12,23,6.80
2017,12,16,12,24,6.80
2017,12,16,12,25,6.80
2017,12,16,12,26,6.80
2017,12,16,12,27,6.80
2017,12,16,12,28,6.90
2017,12,16,12,29,6.90
2017,12,16,12,30,6.90
2017,12,16,12,31,6.90
2017,12,16,12,32,6.80
2017,12,16,12,33,6.80
2017,12,16,12,34,6.80
2017,12,16,12,35,6.80
2017,12,16,12,36,6.80
2017,12,16,12,37,6.80
2017,12,16,12,38,6.80
2017,12,16,12,39,6.80
2017,12,16,12,40,6.80
2017,12,16,12,41,6.80
2017,12,16,12,42,6.80
2017,12,16,12,43,6.80
2017,12,16,12,44,6.80
2017,12,16,12,45,6.80
2017,12,16,12,46,6.80
2017,12,16,12,47,6.80
2017,12,16,12,48,6.80
2017,12,16,12,49,6.80
2017,12,16,12,50,6.80
2017,12,16,12,51,6.80
2017,12,16,12,52,6.80
2017,12,16,12,53,6.80
2017,12,16,12,54,6.80
2017,12,16,12,55,6.80
2017,12,16,12,56,6.80
2017,12,16,12,57,6.80
2017,12,16,12,58,6.80
2017,12,16,12,59,6.80
2017,12,16,13,00,6.80
2017,12,16,13,01,6.80
2017,12,16,13,02,6.80
2017,12,16,13,03,6.80
2017,12,16,13,04,6.80
2017,12,16,13,05,6.80
2017,12,16,13,06,6.80
2017,12,16,13,07,6.80
2017,12,16,13,08,6.80
2017,12,16,13,09,6.80
2017,12,16,13,10,6.80
2017,12,16,13,11,6.80
2017,12,16,13,12,6.80
2017,12,16,13,13,6.80
2017,12,16,13,14,6.80
2017,12,16,13,15,6.80
2017,12,16,13,16,6.70
2017,12,16,13,17,6.70
2017,12,16,13,18,6.70
2017,12,16,13,19,6.70
2017,12,16,13,20,6.70
2017,12,16,13,21,6.70
2017,12,16,13,22,6.70
2017,12,16,13,23,6.70
2017,12,16,13,24,6.70
2017,12,16,13,25,6.70
2017,12,16,13,26,6.70
2017,12,16,13,27,6.70
2017,12,16,13,28,6.70
2017,12,16,13,29,6.60
2017,12,16,13,30,6.60
2017,12,16,13,31,6.60
2017,12,16,13,32,6.70
2017,12,16,13,33,6.70
2017,12,16,13,34,6.70
2017,12,16,13,35,6.70
2017,12,16,13,36,6.70
2017,12,16,13,37,6.70
2017,12,16,13,38,6.70
2017,12,16,13,39,6.70
2017,12,16,13,40,6.70
2017,12,16,13,41,6.70
2017,12,16,13,42,6.70
2017,12,16,13,43,6.70
2017,12,16,13,44,6.70
2017,12,16,13,45,6.70
2017,12,16,13,46,6.70
2017,12,16,13,47,6.70
2017,12,16,13,48,6.70
2017,12,16,13,49,6.80
2017,12,16,13,50,6.80
2017,12,16,13,51,6.80
2017,12,16,13,52,6.80
2017,12,16,13,53,6.80
2017,12,16,13,54,6.80
2017,12,16,13,55,6.80
2017,12,16,13,56,6.80
2017,12,16,13,57,6.80
2017,12,16,13,58,6.80
2017,12,16,13,59,6.80
2017,12,16,14,00,6.80
2017,12,16,14,01,6.80
2017,12,16,14,02,6.80
2017,12,16,14,03,6.80
2017,12,16,14,04,6.80
2017,12,16,14,05,6.80
2017,12,16,14,06,6.80
2017,12,16,14,07,6.80
2017,12,16,14,08,6.90
2017,12,16,14,09,6.90
2017,12,16,14,10,6.90
2017,12,16,14,11,6.90
2017,12,16,14,12,6.80
2017,12,16,14,13,6.80
2017,12,16,14,14,6.80
2017,12,16,14,15,6.80
2017,12,16,14,16,6.80
2017,12,16,14,17,6.80
2017,12,16,14,18,6.80
2017,12,16,14,19,6.80
2017,12,16,14,20,6.80
2017,12,16,14,21,6.80
2017,12,16,14,22,6.80
2017,12,16,14,23,6.80
2017,12,16,14,24,6.80
2017,12,16,14,25,6.80
2017,12,16,14,26,6.80
2017,12,16,14,27,6.80
2017,12,16,14,28,6.80
2017,12,16,14,29,6.80
2017,12,16,14,30,6.80
2017,12,16,14,31,6.80
2017,12,16,14,32,6.80
2017,12,16,14,33,6.80
2017,12,16,14,34,6.80
2017,12,16,14,35,6.80
2017,12,16,14,36,6.80
2017,12,16,14,37,6.80
2017,12,16,14,38,6.80
2017,12,16,14,39,6.80
2017,12,16,14,40,6.80
2017,12,16,14,41,6.80
2017,12,16,14,42,6.80
2017,12,16,14,43,6.80
2017,12,16,14,44,6.80
2017,12,16,14,45,6.80
2017,12,16,14,46,6.80
2017,12,16,14,47,6.80
2017,12,16,14,48,6.80
2017,12,16,14,49,6.80
2017,12,16,14,50,6.80
2017,12,16,14,51,6.80
2017,12,16,14,52,6.80
2017,12,16,14,53,6.80
2017,12,16,14,54,6.80
2017,12,16,14,55,6.80
2017,12,16,14,56,6.80
2017,12,16,14,57,6.80
2017,12,16,14,58,6.80
2017,12,16,14,59,6.80
2017,12,16,15,00,6.80
2017,12,16,15,01,6.80
2017,12,16,15,02,6.80
2017,12,16,15,03,6.80
2017,12,16,15,04,6.80
2017,12,16,15,05,6.80
2017,12,16,15,06,6.80
2017,12,16,15,07,6.80
2017,12,16,15,08,6.80
2017,12,16,15,09,6.80
2017,12,16,15,10,6.80
2017,12,16,15,11,6.80
2017,12,16,15,12,6.80
2017,12,16,15,13,6.80
2017,12,16,15,14,6.80
2017,12,16,15,15,6.80
2017,12,16,15,16,6.80
2017,12,16,15,17,6.80
2017,12,16,15,18,6.80
2017,12,16,15,19,6.80
2017,12,16,15,20,6.80
2017,12,16,15,21,6.80
2017,12,16,15,22,6.80
2017,12,16,15,23,6.80
2017,12,16,15,24,6.80
2017,12,16,15,25,6.80
2017,12,16,15,26,6.80
2017,12,16,15,27,6.80
2017,12,16,15,28,6.80
2017,12,16,15,29,6.80
2017,12,16,15,30,6.80
2017,12,16,15,31,6.80
2017,12,16,15,32,6.80
2017,12,16,15,33,6.80
2017,12,16,15,34,6.80
2017,12,16,15,35,6.80
2017,12,16,15,36,6.80
2017,12,16,15,37,6.80
2017,12,16,15,38,6.80
2017,12,16,15,39,6.80
2017,12,16,15,40,6.80
2017,12,16,15,41,6.80
2017,12,16,15,42,6.80
2017,12,16,15,43,6.80
2017,12,16,15,44,6.80
2017,12,16,15,45,6.80
2017,12,16,15,46,6.80
2017,12,16,15,47,6.80
2017,12,16,15,48,6.80
2017,12,16,15,49,6.80
2017,12,16,15,50,6.80
2017,12,16,15,51,6.80
2017,12,16,15,52,6.80
2017,12,16,15,53,6.80
2017,12,16,15,54,6.80
2017,12,16,15,55,6.80
2017,12,16,15,56,6.80
2017,12,16,15,57,6.80
2017,12,16,15,58,6.80
2017,12,16,15,59,6.80
2017,12,16,16,00,6.80
2017,12,16,16,01,6.80
2017,12,16,16,02,6.80
2017,12,16,16,03,6.80
2017,12,16,16,04,6.80
2017,12,16,16,05,6.80
2017,12,16,16,06,6.80
2017,12,16,16,07,6.80
2017,12,16,16,08,6.80
2017,12,16,16,09,6.80
2017,12,16,16,10,6.80
2017,12,16,16,11,6.80
2017,12,16,16,12,6.80
2017,12,16,16,13,6.80
2017,12,16,16,14,6.80
2017,12,16,16,15,6.80
2017,12,16,16,16,6.80
2017,12,16,16,17,6.80
2017,12,16,16,18,6.80
2017,12,16,16,19,6.80
2017,12,16,16,20,6.80
2017,12,16,16,21,6.80
2017,12,16,16,22,6.80
2017,12,16,16,23,6.80
2017,12,16,16,24,6.80
2017,12,16,16,25,6.80
2017,12,16,16,26,6.80
2017,12,16,16,27,6.70
2017,12,16,16,28,6.70
2017,12,16,16,29,6.70
2017,12,16,16,30,6.70
2017,12,16,16,31,6.70
2017,12,16,16,32,6.70
2017,12,16,16,33,6.70
2017,12,16,16,34,6.70
2017,12,16,16,35,6.70
2017,12,16,16,36,6.70
2017,12,16,16,37,6.70
2017,12,16,16,38,6.70
2017,12,16,16,39,6.70
2017,12,16,16,40,6.70
2017,12,16,16,41,6.70
2017,12,16,16,42,6.70
2017,12,16,16,43,6.70
2017,12,16,16,44,6.70
2017,12,16,16,45,6.70
2017,12,16,16,46,6.70
2017,12,16,16,47,6.70
2017,12,16,16,48,6.70
2017,12,16,16,49,6.70
2017,12,16,16,50,6.70
2017,12,16,16,51,6.70
2017,12,16,16,52,6.70
2017,12,16,16,53,6.70
2017,12,16,16,54,6.70
2017,12,16,16,55,6.60
2017,12,16,16,56,6.60
2017,12,16,16,57,6.60
2017,12,16,16,58,6.60
2017,12,16,16,59,6.60
2017,12,16,17,00,6.60
2017,12,16,17,01,6.70
2017,12,16,17,02,6.70
2017,12,16,17,03,6.70
2017,12,16,17,04,6.70
2017,12,16,17,05,6.70
2017,12,16,17,06,6.70
2017,12,16,17,07,6.70
2017,12,16,17,08,6.70
2017,12,16,17,09,6.70
2017,12,16,17,10,6.70
2017,12,16,17,11,6.70
2017,12,16,17,12,6.70
2017,12,16,17,13,6.70
2017,12,16,17,14,6.70
2017,12,16,17,15,6.70
2017,12,16,17,16,6.70
2017,12,16,17,17,6.70
2017,12,16,17,18,6.70
2017,12,16,17,19,6.70
2017,12,16,17,20,6.70
2017,12,16,17,21,6.70
2017,12,16,17,22,6.70
2017,12,16,17,23,6.70
2017,12,16,17,24,6.70
2017,12,16,17,25,6.70
2017,12,16,17,26,6.70
2017,12,16,17,27,6.70
2017,12,16,17,28,6.70
2017,12,16,17,29,6.70
2017,12,16,17,30,6.70
2017,12,16,17,31,6.70
2017,12,16,17,32,6.70
2017,12,16,17,33,6.70
2017,12,16,17,34,6.70
2017,12,16,17,35,6.70
2017,12,16,17,36,6.70
2017,12,16,17,37,6.70
2017,12,16,17,38,6.70
2017,12,16,17,39,6.70
2017,12,16,17,40,6.70
2017,12,16,17,41,6.70
2017,12,16,17,42,6.70
2017,12,16,17,43,6.70
2017,12,16,17,44,6.80
2017,12,16,17,45,6.80
2017,12,16,17,46,6.80
2017,12,16,17,47,6.80
2017,12,16,17,48,6.80
2017,12,16,17,49,6.80
2017,12,16,17,50,6.80
2017,12,16,17,51,6.80
2017,12,16,17,52,6.80
2017,12,16,17,53,6.80
2017,12,16,17,54,6.80
2017,12,16,17,55,6.70
2017,12,16,17,56,6.70
2017,12,16,17,57,6.70
2017,12,16,17,58,6.70
2017,12,16,17,59,6.70
2017,12,16,18,00,6.70
2017,12,16,18,01,6.70
2017,12,16,18,02,6.70
2017,12,16,18,03,6.70
2017,12,16,18,04,6.70
2017,12,16,18,05,6.70
2017,12,16,18,06,6.70